When you browse on this site, cookies collect data to enhance your experience and personalize the content and advertising you see.
Visit our Privacy Policy to learn more. By continuing to use the site, you agree to this use of cookies and data.
  • En España
  • Lista de países
  • Para 7 días
  • Temperatura del agua
  • El tiempo en el mapa
  • Informadores
  • user-avatar
    Iniciar sesión

    Tiempo cada hora Lorca

    Hoy, 20 Enero, Lunes

    Tiempo Temperatura Precipitaciones Viento Presión Humedad
    00:00 0°C° 1.7 mm 13 mps 729 mmHg 89%
    01:00 0°C° 2.3 mm 13 mps 729 mmHg 90%
    02:00 0°C° 2.3 mm 13 mps 728 mmHg 90%
    03:00 0°C° 2.3 mm 14 mps 728 mmHg 91%
    04:00 -1°C° 3.5 mm 12 mps 728 mmHg 92%
    05:00 -1°C° 3.5 mm 11 mps 727 mmHg 93%
    06:00 0°C° 3.5 mm 10 mps 727 mmHg 95%
    07:00 0°C° 1.8 mm 8 mps 727 mmHg 95%
    08:00 +2°C° 1.8 mm 7 mps 728 mmHg 95%
    09:00 +2°C° 1.8 mm 5 mps 728 mmHg 95%
    10:00 +3°C° 0.2 mm 5 mps 728 mmHg 93%
    11:00 +5°C° 0.2 mm 5 mps 728 mmHg 92%
    12:00 +5°C° 0.2 mm 5 mps 729 mmHg 90%
    13:00 +6°C° 0.7 mm 4 mps 728 mmHg 91%
    14:00 +6°C° 0.7 mm 4 mps 728 mmHg 92%
    15:00 +6°C° 0.7 mm 4 mps 728 mmHg 93%
    16:00 +6°C° 2.9 mm 4 mps 728 mmHg 95%
    17:00 +6°C° 2.9 mm 4 mps 728 mmHg 96%
    18:00 +6°C° 2.9 mm 4 mps 728 mmHg 97%
    19:00 +6°C° 1.7 mm 4 mps 729 mmHg 97%
    20:00 +6°C° 1.7 mm 4 mps 729 mmHg 97%
    21:00 +6°C° 1.7 mm 4 mps 729 mmHg 97%
    22:00 +6°C° 2.3 mm 4 mps 728 mmHg 97%
    23:00 +6°C° 2.3 mm 5 mps 728 mmHg 97%

    Mañana, 21 Enero, Martes

    Tiempo Temperatura Precipitaciones Viento Presión Humedad
    00:00 +6°C° 2.3 mm 5 mps 728 mmHg 97%
    01:00 +6°C° 1.5 mm 5 mps 727 mmHg 96%
    02:00 +6°C° 1.5 mm 5 mps 726 mmHg 95%
    03:00 +5°C° 1.5 mm 6 mps 726 mmHg 94%
    04:00 +6°C° 1.3 mm 5 mps 725 mmHg 94%
    05:00 +6°C° 1.3 mm 5 mps 725 mmHg 95%
    06:00 +6°C° 1.3 mm 4 mps 725 mmHg 96%
    07:00 +6°C° 3.6 mm 4 mps 725 mmHg 95%
    08:00 +6°C° 3.6 mm 4 mps 725 mmHg 95%
    09:00 +7°C° 3.6 mm 3 mps 725 mmHg 95%
    10:00 +7°C° 1.5 mm 3 mps 725 mmHg 94%
    11:00 +7°C° 1.5 mm 3 mps 725 mmHg 93%
    12:00 +8°C° 1.5 mm 2 mps 725 mmHg 91%
    13:00 +8°C° 0.4 mm 2 mps 725 mmHg 88%
    14:00 +9°C° 0.4 mm 2 mps 725 mmHg 85%
    15:00 +10°C° 0.4 mm 3 mps 726 mmHg 82%
    16:00 +9°C° 0.6 mm 2 mps 726 mmHg 85%
    17:00 +8°C° 0.6 mm 2 mps 726 mmHg 88%
    18:00 +9°C° 0.6 mm 1 mps 727 mmHg 91%
    19:00 +9°C° 0.1 mm 1 mps 727 mmHg 92%
    20:00 +8°C° 0.1 mm 1 mps 728 mmHg 92%
    21:00 +8°C° 0.1 mm 1 mps 728 mmHg 92%
    22:00 +8°C° 0 mm 1 mps 728 mmHg 92%
    23:00 +8°C° 0 mm 1 mps 729 mmHg 92%

    Pasado mañana, 22 Enero, Miércoles

    Tiempo Temperatura Precipitaciones Viento Presión Humedad
    00:00 +7°C° 0 mm 2 mps 729 mmHg 92%
    01:00 +7°C° 0 mm 2 mps 729 mmHg 92%
    02:00 +6°C° 0 mm 2 mps 729 mmHg 93%
    03:00 +6°C° 0 mm 2 mps 729 mmHg 93%
    04:00 +6°C° 0.1 mm 2 mps 728 mmHg 94%
    05:00 +6°C° 0.1 mm 2 mps 728 mmHg 94%
    06:00 +5°C° 0.1 mm 3 mps 728 mmHg 95%
    07:00 +7°C° 0.3 mm 2 mps 729 mmHg 93%
    08:00 +7°C° 0.3 mm 2 mps 729 mmHg 92%
    09:00 +8°C° 0.3 mm 2 mps 729 mmHg 90%
    10:00 +9°C° 0.1 mm 2 mps 729 mmHg 85%
    11:00 +10°C° 0.1 mm 2 mps 729 mmHg 79%
    12:00 +12°C° 0.1 mm 2 mps 729 mmHg 73%
    13:00 +12°C° 0 mm 2 mps 729 mmHg 71%
    14:00 +12°C° 0 mm 2 mps 729 mmHg 69%
    15:00 +12°C° 0 mm 2 mps 728 mmHg 66%
    16:00 +10°C° 0 mm 2 mps 729 mmHg 73%
    17:00 +9°C° 0 mm 2 mps 729 mmHg 80%
    18:00 +8°C° 0 mm 2 mps 729 mmHg 87%
    19:00 +8°C° 0 mm 2 mps 729 mmHg 89%
    20:00 +9°C° 0 mm 1 mps 730 mmHg 91%
    21:00 +9°C° 0 mm 1 mps 730 mmHg 94%
    22:00 +9°C° 0 mm 1 mps 730 mmHg 93%
    23:00 +9°C° 0 mm 1 mps 730 mmHg 93%

    23 Enero, Jueves

    Tiempo Temperatura Precipitaciones Viento Presión Humedad
    00:00 +9°C° 0 mm 1 mps 730 mmHg 93%
    01:00 +9°C° 0 mm 1 mps 730 mmHg 93%
    02:00 +9°C° 0 mm 1 mps 730 mmHg 92%
    03:00 +9°C° 0 mm 1 mps 730 mmHg 91%
    04:00 +7°C° 0 mm 2 mps 730 mmHg 91%
    05:00 +7°C° 0 mm 2 mps 730 mmHg 90%
    06:00 +6°C° 0 mm 2 mps 730 mmHg 90%
    07:00 +7°C° 0 mm 2 mps 731 mmHg 90%
    08:00 +8°C° 0 mm 3 mps 731 mmHg 91%
    09:00 +8°C° 0 mm 3 mps 731 mmHg 91%
    10:00 +9°C° 0.1 mm 3 mps 732 mmHg 88%
    11:00 +10°C° 0.1 mm 3 mps 732 mmHg 85%
    12:00 +11°C° 0.1 mm 3 mps 732 mmHg 82%
    13:00 +12°C° 0.1 mm 3 mps 732 mmHg 77%
    14:00 +12°C° 0.1 mm 3 mps 731 mmHg 72%
    15:00 +14°C° 0.1 mm 2 mps 731 mmHg 68%
    16:00 +13°C° 0.1 mm 2 mps 731 mmHg 75%
    17:00 +10°C° 0.1 mm 2 mps 731 mmHg 81%
    18:00 +10°C° 0.1 mm 1 mps 731 mmHg 88%
    19:00 +9°C° 0 mm 1 mps 732 mmHg 89%
    20:00 +9°C° 0 mm 1 mps 732 mmHg 91%
    21:00 +9°C° 0 mm 1 mps 732 mmHg 92%
    22:00 +9°C° 0 mm 1 mps 732 mmHg 92%
    23:00 +8°C° 0 mm 1 mps 733 mmHg 92%

    24 Enero, Viernes

    Tiempo Temperatura Precipitaciones Viento Presión Humedad
    00:00 +8°C° 0 mm 1 mps 733 mmHg 92%
    01:00 +8°C° 0 mm 1 mps 733 mmHg 92%
    02:00 +7°C° 0 mm 2 mps 732 mmHg 92%
    03:00 +6°C° 0 mm 2 mps 732 mmHg 91%
    04:00 +6°C° 0 mm 2 mps 732 mmHg 90%
    05:00 +6°C° 0 mm 2 mps 732 mmHg 89%
    06:00 +6°C° 0 mm 2 mps 732 mmHg 88%
    07:00 +8°C° 0 mm 1 mps 733 mmHg 84%
    08:00 +9°C° 0 mm 1 mps 733 mmHg 81%
    09:00 +10°C° 0 mm 1 mps 734 mmHg 77%
    10:00 +11°C° 0 mm 1 mps 734 mmHg 73%
    11:00 +12°C° 0 mm 1 mps 734 mmHg 68%
    12:00 +13°C° 0 mm 1 mps 734 mmHg 64%
    13:00 +14°C° 0 mm 1 mps 734 mmHg 63%
    14:00 +14°C° 0 mm 2 mps 733 mmHg 63%
    15:00 +14°C° 0 mm 2 mps 733 mmHg 62%
    16:00 +13°C° 0 mm 1 mps 733 mmHg 70%
    17:00 +11°C° 0 mm 1 mps 733 mmHg 78%
    18:00 +10°C° 0 mm 1 mps 733 mmHg 85%
    19:00 +10°C° 0 mm 1 mps 733 mmHg 85%
    20:00 +9°C° 0 mm 1 mps 733 mmHg 85%
    21:00 +9°C° 0 mm 1 mps 734 mmHg 85%
    22:00 +9°C° 0 mm 1 mps 734 mmHg 84%
    23:00 +9°C° 0 mm 1 mps 734 mmHg 83%

    25 Enero, Sábado

    Tiempo Temperatura Precipitaciones Viento Presión Humedad
    00:00 +9°C° 0 mm 1 mps 734 mmHg 83%
    01:00 +8°C° 0 mm 1 mps 733 mmHg 82%
    02:00 +8°C° 0 mm 1 mps 733 mmHg 81%
    03:00 +8°C° 0 mm 1 mps 733 mmHg 81%
    04:00 +8°C° 0 mm 1 mps 733 mmHg 80%
    05:00 +8°C° 0 mm 1 mps 733 mmHg 79%
    06:00 +8°C° 0 mm 1 mps 733 mmHg 78%
    07:00 +9°C° 0 mm 1 mps 733 mmHg 75%
    08:00 +10°C° 0 mm 1 mps 734 mmHg 71%
    09:00 +11°C° 0 mm 1 mps 734 mmHg 68%
    10:00 +12°C° 0 mm 1 mps 734 mmHg 63%
    11:00 +13°C° 0 mm 1 mps 734 mmHg 59%
    12:00 +14°C° 0 mm 1 mps 734 mmHg 54%
    13:00 +15°C° 0 mm 1 mps 734 mmHg 54%
    14:00 +15°C° 0 mm 2 mps 733 mmHg 54%
    15:00 +15°C° 0 mm 2 mps 733 mmHg 54%
    16:00 +14°C° 0 mm 2 mps 733 mmHg 60%
    17:00 +12°C° 0 mm 1 mps 733 mmHg 66%
    18:00 +11°C° 0 mm 1 mps 733 mmHg 72%
    19:00 +10°C° 0 mm 1 mps 733 mmHg 72%
    20:00 +10°C° 0 mm 1 mps 733 mmHg 72%
    21:00 +10°C° 0 mm 1 mps 734 mmHg 72%
    22:00 +10°C° 0 mm 1 mps 734 mmHg 71%
    23:00 +10°C° 0 mm 1 mps 734 mmHg 70%
    Mostrar más